Voltar ao catálogo

STARLINK-34684

AtivoComunicaçõesSSO
NORAD 64862·PAYLOAD·🇺🇸 United States

Lançado Jul 19, 2025 de Vandenberg Space Force Base

Loading…

Próximas Passagens (próximas 24 horas)

TLE

AtualizadoSource: CelesTrak SupGP

Época: Sep 14, 2026, 22:58 UTC

1 64862C 25152W   26257.95743056  .00090028  00000+0  27959-2 0  2571
2 64862  97.2840 108.5998 0001665 108.5610 277.1640 15.33378907    11

Acompanhe STARLINK-34684 em tempo real com AllMySat

Download on the App Store